Location: Sevilla
(37.3933°N, 5.9839°W)
Time: 04:42:56
(UTC+02:00)

Transit 2A - Pass Details

Date: 03 July 2024
Orbit: 591 x 960 km, 66.7° (Epoch: 15 July)

Event Time Altitude Azimuth Distance (km) Brightness Sun altitude
Rises 23:00:04 0° 338° (NNW) 3,579 10.7 -12.4°
Reaches altitude 10° 23:02:46 10° 347° (NNW) 2,663 9.7 -12.8°
Maximum altitude 23:08:37 39° 55° (NE) 1,398 7.2 -13.6°
Enters shadow 23:12:51 18° 115° (ESE) 2,161 7.7 -14.2°
Drops below altitude 10° 23:14:29 10° 123° (ESE) 2,674 - -14.4°
Sets 23:17:11 0° 131° (SE) 3,595 - -14.8°
